Chicago Rockford International Airport
KRFD : now visible

Airfield :











YOU CAN JOIN US ON...

 
LOGIN :

Register | Disclaimer

   EN    FR    IT 

 









Legend :    VFR   Marginal VFR   IFR   Intensive IFR   Very Intensive IFR
Visi :
Ceiling :
>= 8 km
>= 3000ft
5 to 8 km
1000 to 3000 ft
1500m to 5 km
500 to 1000 ft
800 to 1500m
200 to 500 ft
< 800m
< 200 ft
Symbols :   Thunderstorms  Fog  Heavy snow  Heavy precipitations  Wind > 20 kt






- Airport Elevation : 742 ft
- IATA code : RFD


KRFD - Chicago Rockford International

CURRENT METAR :
  • 081454Z 18006KT 10SM FEW080 FEW250 09/01 A3028 RMK AO2 SLP257 T00940006 53011

EXPIRED METARs :
  • 081354Z 20006KT 10SM SCT250 08/00 A3026 RMK AO2 SLP251 T00780000
  • 081254Z 18005KT 10SM FEW085 SCT250 04/M01 A3025 RMK AO2 SLP248 T00441011

TAF KRFD
Valid from the 08 at 12:00 until the 09 at 12:00 UTC


081126Z 0812/0912 22011G18KT P6SM OVC080 WS015/24045KT
FM081800 26011KT P6SM BKN080
FM082200 29006KT P6SM FEW080 FEW250
FM090100 VRB02KT P6SM SCT250
KZAU FIR / North America



MET'MAP, your aeronautical weather chart ! - Copyright ORBIFLY December 2007 - Disclaimer

ORBIFLY MET'MAP TEAM :

Programming & Development : Alexandra Zaïnal
Concept & original design : Baudouin d'Aumeries
Assistance for programming : Marc-Olivier Méhu
Technical & hardware support : Manuel Goepfert

Contact : metmap@orbifly.com




SOURCES & CREDITS :

   NOAA       Earth
Advisory